This is the latest recevied weather packets stored in our database for station/object KR4CWL-13. If no packets are shown the sender has not sent any weather packets the latest 10 day(s).
| Time | Temp. | Humidity | Pressure | Rain* | Wind** | Luminosity | Snow |
|---|---|---|---|---|---|---|---|
| 1777583629 | 22.22° C | 52% | 1001.4 hPa | 0 mm | - | - | - |
| 1777583029 | 21.67° C | 58% | 1001.4 hPa | 0 mm | - | - | - |
| 1777582429 | 21.67° C | 59% | 1001 hPa | 0 mm | - | - | - |
| 1777581829 | 21.67° C | 55% | 1001.4 hPa | 0 mm | - | - | - |
| 1777581229 | 22.22° C | 53% | 1001.4 hPa | 0 mm | - | - | - |
| 1777580629 | 22.22° C | 54% | 1001.7 hPa | 0 mm | - | - | - |
| 1777580029 | 22.22° C | 56% | 1001.7 hPa | 0 mm | - | - | - |
| 1777579429 | 21.67° C | 57% | 1001.7 hPa | 0 mm | - | - | - |
| 1777578829 | 21.67° C | 60% | 1002 hPa | 0 mm | - | - | - |
| 1777578229 | 22.22° C | 55% | 1002 hPa | 0 mm | - | - | - |
| 1777577629 | 22.22° C | 54% | 1002 hPa | 0 mm | - | - | - |
| 1777577029 | 22.22° C | 54% | 1002 hPa | 0 mm | - | - | - |
| 1777576429 | 22.78° C | 54% | 1002 hPa | 0 mm | - | - | - |
| 1777575829 | 22.22° C | 55% | 1002 hPa | 0 mm | - | - | - |
| 1777575229 | 21.67° C | 56% | 1002 hPa | 0 mm | - | - | - |
| 1777574629 | 22.22° C | 59% | 1002.4 hPa | 0 mm | - | - | - |
| 1777574029 | 22.22° C | 57% | 1002 hPa | 0 mm | - | - | - |
| 1777573429 | 22.78° C | 58% | 1002 hPa | 0 mm | - | - | - |
| 1777572829 | 21.67° C | 57% | 1002 hPa | 0 mm | - | - | - |
| 1777572229 | 22.78° C | 57% | 1002 hPa | 0 mm | - | - | - |
| 1777571629 | 22.22° C | 56% | 1002 hPa | 0 mm | - | - | - |
| 1777571029 | 22.78° C | 55% | 1002 hPa | 0 mm | - | - | - |
| 1777570429 | 22.22° C | 54% | 1002 hPa | 0 mm | - | - | - |
| 1777569829 | 22.78° C | 54% | 1002.4 hPa | 0 mm | - | - | - |
| 1777569229 | 22.78° C | 56% | 1002.4 hPa | 0 mm | - | - | - |
* Rain since midnight (hover to see other rain measurements)
** Current wind speed in m/s (hover to see current wind gust speed)